Powrót do katalogu

STARLINK-32036

AktywnyŁącznośćVLEO
NORAD 60141·PAYLOAD·🇺🇸 United States

Wystrzelony Jun 27, 2024 z Cape Canaveral Space Force Station

Loading…

Następne Przeloty (najbliższe 24 godziny)

TLE

ŚwieżeSource: CelesTrak SupGP

Epoka: Sep 14, 2026, 20:48 UTC

1 60141C 24120G   26257.86715278 -.00031344  00000+0 -92563-3 0  2578
2 60141  53.1571 158.3026 0001219 104.5932 168.6721 15.34421065    11

Śledź STARLINK-32036 w czasie rzeczywistym z AllMySat

Download on the App Store